[[{"header":{"parameterUnit":"m.s-1","parameterCategory":1,"la1":30.2991,"la2":30.254,"lo1":-89.0895,"lo2":-89.0444,"dy":0.0017,"dx":0.0017,"nx":28,"ny":28,"refTime":"2023-08-12T21:00:00:Z","depth":0,"parameterNumber":2,"parameterNumberName":"U-component_of_WINDS"},"data":[0,0,0,0,0,0,0,0,0,0,0,0,0,0,0,0,0,0,0,0,0,0,0,0,0,0,0,0,0,0,0,0,0,0,0,0,0,0,0,0,0,0,0,0,0,0,0,0,0,0,0,0,0,0,0,0,0,0,3.1039,3.104,0,3.1133,3.1134,3.1135,3.1163,3.1162,3.1162,3.1161,3.126,3.1263,3.1266,0,0,0,0,0,0,0,0,0,0,0,0,0,3.0887,3.0889,3.1039,3.104,3.1041,3.1133,3.1134,3.1135,3.1163,3.1162,3.1162,3.1161,3.1259,3.1262,3.1266,0,0,0,0,0,0,0,0,0,0,0,0,0,3.0964,3.089,3.1039,3.1066,3.1069,3.1132,3.1134,3.1135,3.1163,3.1162,3.1161,3.1161,3.1257,3.1262,3.1266,3.131,0,0,3.1281,3.1283,0,0,0,0,0,0,0,0,3.096,3.097,3.1061,3.1064,3.1068,3.1135,3.1116,3.1194,3.1163,3.1127,3.1161,3.116,3.1219,3.1227,3.1246,3.1314,3.1318,3.1281,3.1284,3.1286,3.1287,0,0,0,0,0,0,0,3.0954,3.0966,3.1076,3.1062,3.1067,3.1075,3.1085,3.1131,3.1176,3.113,3.1133,3.1143,3.1221,3.1241,3.1248,3.132,3.1281,3.1285,3.1288,3.129,3.1431,3.1432,0,0,0,0,0,0,3.0944,3.0961,3.1073,3.1079,3.1011,3.1078,3.1089,3.1114,3.1176,3.1184,3.1144,3.1144,3.1234,3.1243,3.1252,3.1308,3.1286,3.129,3.1293,3.143,3.1431,3.1432,0,0,0,0,0,0,3.094,3.0953,3.1069,3.1021,3.1036,3.1081,3.1109,3.1117,3.1137,3.1186,3.1194,3.1156,3.1234,3.1246,3.1296,3.1312,3.1292,3.1296,3.1429,3.1431,3.1432,3.142,0,0,0,0,0,0,3.0936,3.0952,3.0968,3.1021,3.1038,3.111,3.111,3.1119,3.1145,3.1146,3.12,3.1208,3.1234,3.1289,3.13,3.1318,3.13,3.1428,3.143,3.1431,3.1419,3.1421,3.1423,0,0,0,0,0,3.093,3.0961,3.0969,3.0982,3.1059,3.1111,3.1121,3.115,3.1146,3.1163,3.1195,3.1206,3.1308,3.1293,3.1307,3.1326,3.1427,3.1429,3.1431,3.1419,3.1421,3.1423,0,0,0,0,0,0,3.0909,3.0968,3.0977,3.1026,3.1063,3.1115,3.1138,3.1151,3.119,3.119,3.1224,3.1236,3.1284,3.131,3.1293,3.1373,3.1368,3.1373,3.1354,3.1356,3.1358,3.1351,3.1304,0,0,0,0,0,3.091,3.0946,3.0996,3.1034,3.1052,3.1092,3.1115,3.1134,3.1175,3.1191,3.1226,3.1265,3.1307,3.1333,3.1373,3.1423,3.1436,3.1443,3.1445,3.1446,3.145,3.1481,3.1485,3.144,3.144,3.144,0,0,3.0913,3.0949,3.097,3.1031,3.1062,3.11,3.1105,3.1144,3.1173,3.1197,3.1246,3.1274,3.132,3.1371,3.1395,3.1394,3.1466,3.1449,3.145,3.1453,3.1484,3.1488,3.1492,3.1441,3.1441,3.1441,0,0,3.0937,3.0967,3.1003,3.1034,3.1081,3.1108,3.1116,3.1167,3.1186,3.1236,3.1255,3.1291,3.136,3.1393,3.1419,3.1458,3.1471,3.147,3.1479,3.1508,3.1512,3.1515,3.153,3.1535,3.1474,3.1474,3.1474,0,3.0934,3.0991,3.102,3.1059,3.1086,3.1109,3.1147,3.1176,3.1234,3.1253,3.1251,3.134,3.1372,3.1432,3.1442,3.1461,3.1474,3.1464,3.1509,3.1512,3.1516,3.1531,3.1536,3.1473,3.1474,3.1474,3.1474,0,3.0986,3.1025,3.1049,3.1104,3.1134,3.1172,3.1209,3.1235,3.1252,3.1279,3.1331,3.1371,3.1421,3.1437,3.1453,3.1499,3.1498,3.1502,3.1498,3.1519,3.1534,3.154,3.1473,3.1473,3.1473,3.1473,0,0,3.0999,3.1071,3.1079,3.1105,3.116,3.1191,3.1231,3.128,3.1303,3.1343,3.1378,3.1437,3.1442,3.1471,3.1492,3.1518,3.1548,3.1519,3.1521,3.1524,3.1603,3.16,3.1606,3.1556,3.1557,3.1558,3.16,0,3.1031,3.1102,3.113,3.1189,3.1227,3.125,3.1285,3.1323,3.135,3.1387,3.1417,3.1459,3.1461,3.1479,3.1505,3.1538,3.1564,3.1536,3.1591,3.1593,3.158,3.1614,3.1611,3.1648,3.1605,3.1606,3.1607,0,3.1077,3.1117,3.118,3.1231,3.1248,3.1279,3.1327,3.1361,3.1406,3.1423,3.1457,3.1476,3.1521,3.1514,3.1577,3.1557,3.1581,3.1601,3.1604,3.161,3.1602,3.1623,3.166,3.1666,3.1616,3.1616,3.1615,0,3.1082,3.1152,3.1199,3.122,3.1281,3.1302,3.1329,3.1372,3.14,3.1442,3.1461,3.1508,3.1534,3.157,3.1602,3.1594,3.1663,3.1658,3.168,3.168,3.1694,3.1693,3.1737,3.1708,3.1708,3.1708,3.1708,0,3.1115,3.1153,3.1202,3.1231,3.1274,3.1307,3.135,3.1378,3.1417,3.1453,3.1475,3.1509,3.1549,3.1588,3.1614,3.1663,3.1674,3.1691,3.1698,3.169,3.1688,3.1707,3.1705,3.171,3.1709,3.1709,3.1709,0,3.1128,3.1162,3.1215,3.1269,3.1283,3.1313,3.1359,3.1389,3.1417,3.1462,3.1475,3.1519,3.1567,3.1603,3.1664,3.1681,3.1734,3.1741,3.1719,3.1723,3.1743,3.1741,3.1802,3.1812,3.1775,3.1775,3.1776,0,3.1148,3.1177,3.1234,3.126,3.1286,3.1326,3.1355,3.1389,3.1418,3.1472,3.1496,3.1545,3.1586,3.1661,3.1699,3.1747,3.1755,3.1773,3.1763,3.1754,3.1757,3.1756,3.1759,3.1775,3.1775,3.1775,3.1775,0,3.1179,3.1195,3.1235,3.1282,3.1315,3.1354,3.1393,3.1412,3.1454,3.1486,3.1534,3.1566,3.1629,3.1678,3.173,3.1759,3.1775,3.1778,3.1786,3.1779,3.1766,3.1774,3.1724,3.1777,3.1777,3.1777,3.1777,3.1776,3.1197,3.1225,3.127,3.1314,3.1347,3.1384,3.1415,3.1447,3.1487,3.1541,3.1559,3.161,3.1655,3.1726,3.1756,3.1797,3.1797,3.1808,3.1811,3.1814,3.1814,3.1758,3.1806,3.1806,3.1806,3.1806,3.1806,0,3.1231,3.1261,3.1302,3.1356,3.1391,3.1402,3.1446,3.1476,3.152,3.156,3.16,3.1657,3.1705,3.1748,3.1798,3.1823,3.1831,3.1835,3.1834,3.1841,3.181,3.1799,3.1827,3.1827,3.1827,3.1827,3.1827,3.1827,3.1253,3.1302,3.1323,3.1389,3.1419,3.1468,3.1493,3.1527,3.156,3.1622,3.1661,3.1689,3.1731,3.1785,3.183,3.1841,3.1859,3.1861,3.1875,3.1845,3.1843,3.184,3.183,3.1864,3.1865,3.1902,3.1903,3.1903]},{"header":{"parameterUnit":"m.s-1","parameterCategory":1,"la1":30.2991,"la2":30.254,"lo1":-89.0895,"lo2":-89.0444,"dy":0.0017,"dx":0.0017,"nx":28,"ny":28,"refTime":"2023-08-12T21:00:00:Z","depth":0,"parameterNumber":3,"parameterNumberName":"V-component_of_WINDS"},"data":[0,0,0,0,0,0,0,0,0,0,0,0,0,0,0,0,0,0,0,0,0,0,0,0,0,0,0,0,0,0,0,0,0,0,0,0,0,0,0,0,0,0,0,0,0,0,0,0,0,0,0,0,0,0,0,0,0,0,-0.5289,-0.5289,0,-0.5319,-0.5319,-0.532,-0.5329,-0.5329,-0.5329,-0.5329,-0.536,-0.5361,-0.5362,0,0,0,0,0,0,0,0,0,0,0,0,0,-0.5242,-0.5243,-0.5289,-0.5289,-0.529,-0.5319,-0.5319,-0.532,-0.5329,-0.5329,-0.5329,-0.5329,-0.536,-0.5361,-0.5362,0,0,0,0,0,0,0,0,0,0,0,0,0,-0.5266,-0.5243,-0.5289,-0.5298,-0.5299,-0.5319,-0.5319,-0.532,-0.5329,-0.5329,-0.5329,-0.5329,-0.536,-0.5361,-0.5363,-0.5376,0,0,-0.5367,-0.5368,0,0,0,0,0,0,0,0,-0.5265,-0.5268,-0.5296,-0.5297,-0.5299,-0.532,-0.5314,-0.5339,-0.5329,-0.5318,-0.5329,-0.5329,-0.5347,-0.535,-0.5356,-0.5377,-0.5378,-0.5367,-0.5368,-0.5369,-0.5369,0,0,0,0,0,0,0,-0.5263,-0.5267,-0.5301,-0.5297,-0.5298,-0.5301,-0.5305,-0.5319,-0.5333,-0.5319,-0.532,-0.5323,-0.5348,-0.5354,-0.5357,-0.5379,-0.5367,-0.5368,-0.5369,-0.537,-0.5415,-0.5415,0,0,0,0,0,0,-0.526,-0.5265,-0.53,-0.5302,-0.5281,-0.5302,-0.5306,-0.5314,-0.5333,-0.5336,-0.5323,-0.5323,-0.5352,-0.5355,-0.5358,-0.5376,-0.5369,-0.537,-0.5371,-0.5415,-0.5415,-0.5415,0,0,0,0,0,0,-0.5259,-0.5263,-0.5299,-0.5284,-0.5289,-0.5303,-0.5312,-0.5314,-0.5321,-0.5336,-0.5339,-0.5327,-0.5352,-0.5356,-0.5372,-0.5377,-0.5371,-0.5372,-0.5414,-0.5415,-0.5415,-0.5411,0,0,0,0,0,0,-0.5258,-0.5262,-0.5267,-0.5284,-0.5289,-0.5311,-0.5312,-0.5315,-0.5323,-0.5324,-0.5341,-0.5344,-0.5352,-0.5369,-0.5373,-0.5379,-0.5373,-0.5414,-0.5414,-0.5415,-0.5411,-0.5411,-0.5412,0,0,0,0,0,-0.5256,-0.5264,-0.5267,-0.5271,-0.5295,-0.5312,-0.5315,-0.5324,-0.5323,-0.5329,-0.5339,-0.5343,-0.5376,-0.5371,-0.5375,-0.5381,-0.5413,-0.5414,-0.5415,-0.5411,-0.5411,-0.5412,0,0,0,0,0,0,-0.5247,-0.5266,-0.527,-0.5284,-0.5296,-0.5313,-0.532,-0.5324,-0.5337,-0.5337,-0.5349,-0.5352,-0.5368,-0.5376,-0.537,-0.5396,-0.5395,-0.5397,-0.539,-0.5391,-0.5392,-0.539,-0.5374,0,0,0,0,0,-0.5247,-0.5258,-0.5275,-0.5285,-0.5291,-0.5305,-0.5312,-0.5318,-0.5332,-0.5337,-0.5348,-0.5361,-0.5375,-0.5383,-0.5396,-0.5412,-0.5417,-0.5419,-0.5419,-0.542,-0.5421,-0.5432,-0.5434,-0.5418,-0.5418,-0.5418,0,0,-0.5246,-0.5258,-0.5265,-0.5284,-0.5294,-0.5307,-0.5309,-0.5321,-0.5331,-0.5339,-0.5355,-0.5364,-0.5379,-0.5396,-0.5403,-0.5403,-0.5427,-0.5421,-0.5421,-0.5422,-0.5433,-0.5435,-0.5436,-0.5418,-0.5418,-0.5418,0,0,-0.5252,-0.5262,-0.5273,-0.5283,-0.5299,-0.5308,-0.531,-0.5327,-0.5334,-0.535,-0.5357,-0.5369,-0.5391,-0.5403,-0.5411,-0.5424,-0.5429,-0.5428,-0.5431,-0.5441,-0.5443,-0.5444,-0.545,-0.5452,-0.5429,-0.5429,-0.5429,0,-0.5249,-0.5268,-0.5278,-0.529,-0.5299,-0.5308,-0.532,-0.533,-0.5349,-0.5355,-0.5355,-0.5385,-0.5395,-0.5416,-0.5419,-0.5425,-0.543,-0.5426,-0.5442,-0.5443,-0.5444,-0.545,-0.5452,-0.5429,-0.5429,-0.5429,-0.5429,0,-0.5265,-0.5277,-0.5284,-0.5303,-0.5313,-0.5325,-0.5338,-0.5347,-0.5354,-0.5363,-0.5381,-0.5394,-0.5411,-0.5417,-0.5422,-0.5438,-0.5438,-0.5439,-0.5438,-0.5446,-0.5451,-0.5454,-0.5429,-0.5429,-0.5429,-0.5429,0,0,-0.5264,-0.529,-0.5292,-0.5302,-0.5321,-0.5331,-0.5345,-0.5362,-0.537,-0.5383,-0.5396,-0.5416,-0.5418,-0.5428,-0.5435,-0.5445,-0.5456,-0.5445,-0.5446,-0.5448,-0.5476,-0.5476,-0.5478,-0.5459,-0.5459,-0.546,-0.5476,0,-0.5273,-0.5297,-0.5307,-0.5327,-0.534,-0.5349,-0.5361,-0.5375,-0.5385,-0.5398,-0.5409,-0.5423,-0.5424,-0.5431,-0.544,-0.5452,-0.5462,-0.5451,-0.5472,-0.5473,-0.5468,-0.5481,-0.548,-0.5494,-0.5478,-0.5478,-0.5478,0,-0.5286,-0.53,-0.5321,-0.5341,-0.5346,-0.5357,-0.5374,-0.5386,-0.5403,-0.5409,-0.5422,-0.5429,-0.5445,-0.5443,-0.5466,-0.5459,-0.5468,-0.5476,-0.5476,-0.5479,-0.5476,-0.5485,-0.5498,-0.5501,-0.5482,-0.5481,-0.5481,0,-0.5285,-0.5309,-0.5326,-0.5334,-0.5356,-0.5364,-0.5374,-0.539,-0.54,-0.5415,-0.5423,-0.544,-0.5449,-0.5463,-0.5475,-0.5472,-0.5498,-0.5496,-0.5505,-0.5505,-0.551,-0.551,-0.5526,-0.5515,-0.5515,-0.5515,-0.5515,0,-0.5294,-0.5307,-0.5326,-0.5336,-0.5351,-0.5364,-0.5379,-0.539,-0.5405,-0.5418,-0.5427,-0.5439,-0.5455,-0.547,-0.548,-0.5498,-0.5502,-0.5509,-0.5512,-0.5509,-0.5508,-0.5515,-0.5515,-0.5515,-0.5515,-0.5515,-0.5515,0,-0.5295,-0.5309,-0.5327,-0.5348,-0.5353,-0.5364,-0.5382,-0.5393,-0.5404,-0.5421,-0.5425,-0.5443,-0.5461,-0.5475,-0.5498,-0.5505,-0.5526,-0.5528,-0.552,-0.5521,-0.553,-0.5529,-0.5552,-0.5557,-0.5541,-0.5541,-0.5541,0,-0.53,-0.5311,-0.5333,-0.5342,-0.5352,-0.5367,-0.5378,-0.5392,-0.5403,-0.5424,-0.5433,-0.5452,-0.5468,-0.5497,-0.5512,-0.553,-0.5534,-0.5541,-0.5537,-0.5534,-0.5536,-0.5535,-0.5537,-0.5541,-0.5541,-0.5541,-0.5541,0,-0.5308,-0.5315,-0.533,-0.5348,-0.5361,-0.5376,-0.5391,-0.5399,-0.5415,-0.5428,-0.5447,-0.5459,-0.5484,-0.5503,-0.5524,-0.5535,-0.5542,-0.5543,-0.5546,-0.5543,-0.5539,-0.5543,-0.5522,-0.5542,-0.5542,-0.5542,-0.5542,-0.5542,-0.5312,-0.5323,-0.5341,-0.5358,-0.5371,-0.5385,-0.5397,-0.541,-0.5426,-0.5448,-0.5455,-0.5475,-0.5494,-0.5522,-0.5534,-0.555,-0.5551,-0.5555,-0.5556,-0.5557,-0.5558,-0.5536,-0.5554,-0.5554,-0.5554,-0.5554,-0.5554,0,-0.5322,-0.5334,-0.535,-0.5371,-0.5386,-0.5391,-0.5409,-0.542,-0.5438,-0.5454,-0.547,-0.5493,-0.5513,-0.553,-0.5551,-0.5561,-0.5565,-0.5566,-0.5566,-0.5569,-0.5556,-0.5551,-0.5563,-0.5563,-0.5563,-0.5563,-0.5563,-0.5563,-0.5328,-0.5347,-0.5356,-0.5382,-0.5395,-0.5414,-0.5424,-0.5438,-0.5452,-0.5477,-0.5494,-0.5505,-0.5523,-0.5545,-0.5564,-0.5569,-0.5576,-0.5577,-0.5583,-0.557,-0.5569,-0.5568,-0.5564,-0.5578,-0.5578,-0.5595,-0.5595,-0.5595]}]]